• In Denmark
  • List of Countries
  • For 7 days
  • Water Temperature
  • Satellite Maps
  • Weather Map
  • Weather Widgets
  • user-avatar
    Login

    Hourly Weather Kerns

    Today, 11 December, Monday

    Time Temperature Precipitation Wind Pressure Humidity
    00:00 +25°C° 0 mm 5 mps 758 mmHg 93%
    01:00 +25°C° 0 mm 5 mps 758 mmHg 94%
    02:00 +25°C° 0 mm 5 mps 758 mmHg 94%
    03:00 +25°C° 0 mm 5 mps 758 mmHg 93%
    04:00 +25°C° 0 mm 5 mps 758 mmHg 93%
    05:00 +26°C° 0 mm 5 mps 758 mmHg 90%
    06:00 +26°C° 0 mm 5 mps 758 mmHg 87%
    07:00 +27°C° 0 mm 5 mps 758 mmHg 84%
    08:00 +29°C° 0 mm 5 mps 758 mmHg 74%
    09:00 +32°C° 0 mm 5 mps 758 mmHg 65%
    10:00 +34°C° 0 mm 5 mps 758 mmHg 56%
    11:00 +34°C° 0 mm 6 mps 758 mmHg 52%
    12:00 +35°C° 0 mm 6 mps 757 mmHg 48%
    13:00 +36°C° 0 mm 6 mps 757 mmHg 44%
    14:00 +36°C° 0 mm 6 mps 757 mmHg 44%
    15:00 +36°C° 0 mm 6 mps 756 mmHg 45%
    16:00 +35°C° 0 mm 6 mps 756 mmHg 46%
    17:00 +33°C° 0 mm 5 mps 756 mmHg 56%
    18:00 +30°C° 0 mm 5 mps 757 mmHg 66%
    19:00 +28°C° 0 mm 5 mps 757 mmHg 76%
    20:00 +27°C° 0 mm 4 mps 757 mmHg 81%
    21:00 +26°C° 0 mm 4 mps 758 mmHg 86%
    22:00 +25°C° 0 mm 4 mps 758 mmHg 91%
    23:00 +25°C° 0 mm 4 mps 758 mmHg 92%

    Tomorrow, 12 December, Tuesday

    Time Temperature Precipitation Wind Pressure Humidity
    00:00 +25°C° 0 mm 4 mps 757 mmHg 93%
    01:00 +25°C° 0 mm 4 mps 757 mmHg 94%
    02:00 +25°C° 0 mm 4 mps 757 mmHg 94%
    03:00 +25°C° 0 mm 4 mps 757 mmHg 94%
    04:00 +25°C° 0 mm 4 mps 756 mmHg 93%
    05:00 +26°C° 0 mm 4 mps 757 mmHg 89%
    06:00 +26°C° 0 mm 4 mps 757 mmHg 85%
    07:00 +27°C° 0 mm 5 mps 758 mmHg 80%
    08:00 +29°C° 0 mm 5 mps 758 mmHg 70%
    09:00 +32°C° 0 mm 5 mps 758 mmHg 60%
    10:00 +34°C° 0 mm 6 mps 758 mmHg 49%
    11:00 +34°C° 0 mm 6 mps 757 mmHg 47%
    12:00 +35°C° 0 mm 6 mps 757 mmHg 45%
    13:00 +36°C° 0 mm 6 mps 757 mmHg 43%
    14:00 +35°C° 0 mm 6 mps 756 mmHg 45%
    15:00 +35°C° 0 mm 6 mps 756 mmHg 47%
    16:00 +34°C° 0 mm 6 mps 755 mmHg 48%
    17:00 +32°C° 0 mm 6 mps 756 mmHg 57%
    18:00 +29°C° 0 mm 5 mps 756 mmHg 66%
    19:00 +28°C° 0 mm 5 mps 757 mmHg 75%
    20:00 +27°C° 0 mm 5 mps 757 mmHg 79%
    21:00 +26°C° 0 mm 5 mps 758 mmHg 84%
    22:00 +25°C° 0 mm 5 mps 758 mmHg 88%
    23:00 +25°C° 0 mm 4 mps 758 mmHg 89%

    Day after tomorrow, 13 December, Wednesday

    Time Temperature Precipitation Wind Pressure Humidity
    00:00 +25°C° 0 mm 4 mps 758 mmHg 91%
    01:00 +25°C° 0 mm 4 mps 757 mmHg 92%
    02:00 +23°C° 0 mm 4 mps 757 mmHg 91%
    03:00 +23°C° 0 mm 4 mps 756 mmHg 91%
    04:00 +23°C° 0 mm 4 mps 756 mmHg 90%
    05:00 +25°C° 0 mm 5 mps 756 mmHg 86%
    06:00 +25°C° 0 mm 5 mps 757 mmHg 82%
    07:00 +26°C° 0 mm 5 mps 757 mmHg 78%
    08:00 +28°C° 0.1 mm 5 mps 757 mmHg 70%
    09:00 +30°C° 0.1 mm 5 mps 757 mmHg 62%
    10:00 +33°C° 0.1 mm 6 mps 757 mmHg 54%
    11:00 +34°C° 0.1 mm 6 mps 757 mmHg 52%
    12:00 +34°C° 0.1 mm 6 mps 757 mmHg 50%
    13:00 +35°C° 0.1 mm 6 mps 756 mmHg 48%
    14:00 +35°C° 0 mm 6 mps 756 mmHg 48%
    15:00 +34°C° 0 mm 6 mps 755 mmHg 49%
    16:00 +34°C° 0 mm 6 mps 755 mmHg 50%
    17:00 +32°C° 0 mm 5 mps 755 mmHg 57%
    18:00 +29°C° 0 mm 5 mps 756 mmHg 65%
    19:00 +27°C° 0 mm 4 mps 756 mmHg 72%
    20:00 +26°C° 0 mm 4 mps 757 mmHg 77%
    21:00 +25°C° 0 mm 4 mps 757 mmHg 81%
    22:00 +23°C° 0 mm 4 mps 758 mmHg 86%
    23:00 +23°C° 0 mm 4 mps 758 mmHg 88%

    14 December, Thursday

    Time Temperature Precipitation Wind Pressure Humidity
    00:00 +22°C° 0 mm 4 mps 757 mmHg 90%
    01:00 +22°C° 0 mm 3 mps 757 mmHg 92%
    02:00 +22°C° 0 mm 3 mps 756 mmHg 93%
    03:00 +22°C° 0 mm 4 mps 756 mmHg 94%
    04:00 +22°C° 0 mm 4 mps 756 mmHg 95%
    05:00 +23°C° 0 mm 4 mps 756 mmHg 91%
    06:00 +25°C° 0 mm 4 mps 757 mmHg 87%
    07:00 +26°C° 0 mm 4 mps 757 mmHg 83%
    08:00 +28°C° 0 mm 4 mps 757 mmHg 71%
    09:00 +32°C° 0 mm 4 mps 757 mmHg 60%
    10:00 +34°C° 0 mm 5 mps 757 mmHg 48%
    11:00 +35°C° 0 mm 5 mps 757 mmHg 45%
    12:00 +36°C° 0 mm 5 mps 756 mmHg 41%
    13:00 +37°C° 0 mm 5 mps 755 mmHg 38%
    14:00 +36°C° 0 mm 5 mps 755 mmHg 39%
    15:00 +36°C° 0 mm 5 mps 754 mmHg 40%
    16:00 +36°C° 0 mm 5 mps 754 mmHg 42%
    17:00 +33°C° 0 mm 5 mps 754 mmHg 53%
    18:00 +30°C° 0 mm 5 mps 755 mmHg 64%
    19:00 +28°C° 0 mm 4 mps 755 mmHg 75%
    20:00 +27°C° 0 mm 4 mps 756 mmHg 81%
    21:00 +26°C° 0 mm 3 mps 756 mmHg 87%
    22:00 +25°C° 0 mm 3 mps 757 mmHg 92%
    23:00 +24°C° 0 mm 3 mps 756 mmHg 93%

    15 December, Friday

    Time Temperature Precipitation Wind Pressure Humidity
    00:00 +24°C° 0 mm 3 mps 756 mmHg 93%
    01:00 +24°C° 0 mm 3 mps 756 mmHg 94%
    02:00 +24°C° 0 mm 3 mps 756 mmHg 94%
    03:00 +24°C° 0 mm 3 mps 755 mmHg 95%
    04:00 +24°C° 0 mm 3 mps 755 mmHg 95%
    05:00 +25°C° 0 mm 3 mps 756 mmHg 92%
    06:00 +26°C° 0 mm 3 mps 756 mmHg 89%
    07:00 +26°C° 0 mm 3 mps 757 mmHg 85%
    08:00 +29°C° 0 mm 3 mps 756 mmHg 72%
    09:00 +31°C° 0 mm 3 mps 756 mmHg 59%
    10:00 +35°C° 0 mm 3 mps 756 mmHg 46%
    11:00 +36°C° 0 mm 3 mps 756 mmHg 42%
    12:00 +37°C° 0 mm 4 mps 755 mmHg 37%
    13:00 +38°C° 0 mm 4 mps 755 mmHg 33%
    14:00 +37°C° 0 mm 4 mps 754 mmHg 35%
    15:00 +37°C° 0 mm 4 mps 754 mmHg 37%
    16:00 +36°C° 0 mm 5 mps 753 mmHg 40%
    17:00 +34°C° 0 mm 4 mps 754 mmHg 51%
    18:00 +30°C° 0 mm 4 mps 754 mmHg 61%
    19:00 +28°C° 0 mm 3 mps 755 mmHg 72%
    20:00 +27°C° 0 mm 3 mps 755 mmHg 77%
    21:00 +26°C° 0 mm 3 mps 756 mmHg 82%
    22:00 +25°C° 0 mm 3 mps 756 mmHg 88%
    23:00 +25°C° 0 mm 3 mps 756 mmHg 89%

    16 December, Saturday

    Time Temperature Precipitation Wind Pressure Humidity
    00:00 +25°C° 0 mm 3 mps 756 mmHg 90%
    01:00 +24°C° 0 mm 3 mps 756 mmHg 92%
    02:00 +25°C° 0 mm 3 mps 756 mmHg 93%
    03:00 +25°C° 0 mm 3 mps 756 mmHg 93%
    04:00 +25°C° 0 mm 3 mps 755 mmHg 94%
    05:00 +25°C° 0 mm 3 mps 756 mmHg 91%
    06:00 +26°C° 0 mm 3 mps 757 mmHg 87%
    07:00 +27°C° 0 mm 3 mps 757 mmHg 84%
    08:00 +29°C° 0 mm 3 mps 757 mmHg 72%
    09:00 +31°C° 0 mm 3 mps 757 mmHg 59%
    10:00 +35°C° 0 mm 3 mps 757 mmHg 47%
    11:00 +36°C° 0 mm 4 mps 756 mmHg 44%
    12:00 +37°C° 0 mm 4 mps 756 mmHg 42%
    13:00 +38°C° 0 mm 4 mps 755 mmHg 39%
    14:00 +37°C° 0 mm 5 mps 755 mmHg 42%
    15:00 +37°C° 0 mm 5 mps 754 mmHg 45%
    16:00 +36°C° 0 mm 5 mps 754 mmHg 48%
    17:00 +34°C° 0 mm 5 mps 754 mmHg 58%
    18:00 +32°C° 0 mm 5 mps 755 mmHg 68%
    19:00 +29°C° 0 mm 5 mps 755 mmHg 78%
    20:00 +28°C° 0 mm 5 mps 756 mmHg 84%
    21:00 +28°C° 0 mm 4 mps 756 mmHg 89%
    22:00 +27°C° 0 mm 4 mps 757 mmHg 94%
    23:00 +27°C° 0 mm 4 mps 756 mmHg 93%
    Show more